Retour au catalogue

GHGSAT-C6

ActifScienceSSO
NORAD 56204·PAYLOAD·🇨🇦 Canada

Lancé Apr 15, 2023 depuis Vandenberg Space Force Base

Loading…

Prochains Passages (prochaines 24 heures)

TLE

FraisSource: Space-Track

Époque: Sep 15, 2026, 00:11 UTC

1 56204U 23054AC  26258.00767064  .00016724  00000-0  24665-3 0  9990
2 56204  97.2957 169.6345 0007925  75.4317 284.7816 15.55421501192403

Suivez GHGSAT-C6 en temps réel avec AllMySat

Download on the App Store